Theta_e
298 299 298 298 298 298 298 298 299 300 301 302 302 303 303 302 302 304 307 309 311 312 311 309 312 321 324 328 329 330 331 331 328 327 331 334 333 332 332 331 329 331 331
297 297 297 297 298 298 298 298 298 299 300 301 302 302 302 302 302 301 303 305 307 309 309 311 314 316 319 317 323 327 327 330 331 330 329 333 334 333 332 332 331 328 328
297 296 297 297 298 298 298 298 298 297 298 300 301 302 302 302 302 302 302 303 306 307 307 307 312 314 311 310 309 312 322 325 330 332 331 330 334 334 333 332 332 331 328
296 297 297 297 297 297 298 298 298 298 297 298 300 301 302 302 302 302 301 303 304 307 307 307 309 312 311 310 306 306 308 314 321 325 329 332 330 333 333 333 332 332 330
295 296 296 297 297 297 297 298 298 298 298 298 299 300 302 302 302 302 301 302 303 306 307 308 307 307 308 310 306 305 305 306 307 311 318 319 329 331 332 332 333 332 331
294 295 295 296 296 296 296 296 298 298 298 298 298 299 301 302 302 302 302 301 303 305 307 308 308 307 306 305 305 305 306 305 312 307 307 313 311 324 331 331 331 333 332
293 293 294 294 295 296 297 297 297 298 298 298 298 298 299 300 302 302 302 301 302 304 306 307 307 307 306 305 305 304 306 309 312 314 311 306 312 307 313 328 331 331 331
292 293 293 294 295 295 296 297 297 297 298 298 298 297 298 299 301 302 302 302 302 303 306 306 306 306 306 305 304 304 303 304 312 312 316 316 305 306 306 308 315 324 329
293 293 293 294 294 295 296 297 297 297 297 298 298 297 299 300 301 303 302 302 302 303 304 306 306 306 305 304 303 303 303 302 305 308 317 318 317 313 307 308 309 309 320
293 294 294 294 294 294 295 297 297 297 297 298 298 298 297 297 299 301 303 303 302 301 302 303 305 305 305 304 303 303 302 302 301 301 310 316 317 318 316 316 317 317 321
294 294 294 294 294 293 295 297 298 297 297 298 298 298 297 297 297 298 299 301 303 302 301 302 303 305 305 304 303 302 302 302 301 300 305 315 318 315 313 319 320 323 322
293 294 294 294 295 294 295 297 297 297 298 298 298 298 297 297 298 298 299 299 300 302 302 301 302 304 304 303 302 302 302 302 301 301 303 310 313 314 314 315 316 319 320
293 294 295 295 295 295 295 296 297 297 297 297 297 298 297 297 297 297 299 299 300 300 302 303 302 303 304 303 302 302 301 301 301 301 303 309 312 311 315 314 315 316 313
293 294 296 297 296 296 296 297 297 297 297 297 297 297 297 297 297 297 298 298 299 300 301 302 303 303 303 302 302 301 301 300 300 304 303 309 310 307 310 312 311 311 312
293 295 297 297 296 297 297 297 297 297 297 297 297 297 298 297 296 296 297 297 298 300 300 301 302 302 303 302 302 301 301 300 300 303 304 307 307 305 305 305 305 304 305
293 294 296 297 298 298 297 298 298 298 298 297 297 298 297 297 297 296 296 296 297 298 299 299 299 301 302 302 301 302 301 300 299 301 303 302 301 300 300 300 300 300 300
293 293 294 296 295 296 297 297 298 298 297 298 298 299 298 298 297 297 296 296 297 298 298 298 299 300 301 301 301 301 301 301 300 301 303 301 300 300 300 300 300 300 299
293 292 293 294 295 295 295 296 296 297 297 297 297 297 296 298 297 296 297 297 297 296 296 296 297 298 299 299 299 299 301 300 301 302 302 302 301 300 300 299 299 298 297
293 292 293 293 293 294 294 294 293 293 294 295 295 296 297 297 298 297 297 297 296 296 296 297 297 298 297 298 299 299 300 300 301 301 301 301 300 300 299 297 296 295 294
293 292 293 293 293 293 293 293 294 294 294 294 294 294 295 296 297 297 297 298 297 296 296 296 297 297 297 297 298 299 299 300 300 300 301 301 300 300 300 297 296 296 295
293 293 292 293 294 294 293 293 293 293 293 294 293 294 293 296 296 297 298 297 297 297 296 296 296 296 297 298 298 298 298 298 298 300 300 300 300 300 300 298 297 297 296
293 293 292 292 293 295 294 294 293 292 293 293 294 293 293 293 295 296 298 298 298 297 297 296 296 296 296 296 297 298 297 297 297 299 299 299 299 299 298 298 297 297 297
293 293 293 292 292 294 295 294 293 292 292 291 292 293 293 293 293 294 295 296 295 296 297 297 296 296 296 298 297 297 298 298 297 297 298 298 298 298 298 298 298 297 297
294 294 293 293 292 293 295 295 292 292 292 291 290 291 292 293 293 292 293 294 294 294 294 294 295 294 296 296 297 296 296 297 296 297 297 297 297 297 297 297 297 297 297
295 294 294 294 293 293 294 295 293 291 291 291 291 290 291 291 293 292 291 292 292 293 293 293 293 293 294 294 295 296 296 296 295 295 295 295 296 295 295 296 296 296 296
294 294 294 294 294 293 293 295 294 293 292 291 291 290 290 292 291 292 290 290 290 291 291 291 291 291 292 292 292 293 294 295 294 294 295 295 296 296 295 295 295 295 295
Wind_Speed
29 27 29 29 27 26 23 22 24 24 22 18 19 20 20 21 22 26 20 18 23 25 24 17 16 17 19 27 26 25 24 24 26 26 25 24 23 22 19 17 19 21 18
27 29 31 29 27 25 25 23 22 24 26 23 18 18 20 22 23 23 24 22 22 20 20 21 14 18 19 23 22 23 22 24 26 26 26 26 24 23 22 21 18 19 21
29 25 29 28 26 26 26 24 22 21 25 26 24 18 19 20 21 22 24 25 20 23 22 19 17 15 18 20 20 17 19 19 22 21 27 27 24 25 24 23 22 18 20
28 26 26 29 26 25 23 24 22 20 19 22 27 22 17 19 20 21 24 23 20 19 18 15 20 17 14 15 19 19 18 18 19 19 21 19 29 25 25 25 23 22 20
28 28 25 29 25 25 24 21 20 18 19 17 24 24 23 19 20 20 21 22 23 18 18 14 13 18 17 14 19 17 18 18 17 19 17 14 21 25 29 26 24 27 23
30 28 31 24 24 23 23 20 19 18 18 16 16 25 26 21 20 21 22 20 21 20 18 12 16 15 14 18 19 18 17 16 13 17 16 20 12 21 23 18 24 27 28
29 30 26 26 23 24 23 22 19 17 17 16 14 14 25 27 21 18 22 22 21 18 23 21 14 12 9 10 12 16 18 15 14 13 15 12 21 16 18 25 26 17 26
28 26 25 28 25 22 21 20 19 14 15 14 11 10 10 14 26 23 19 20 24 22 16 25 29 21 17 13 13 12 13 17 14 14 15 13 13 19 17 19 22 29 23
26 27 25 26 28 24 20 19 17 16 13 13 13 10 5 5 10 14 21 21 20 24 20 18 20 18 18 17 16 15 16 17 18 16 14 15 17 16 14 14 16 20 28
28 31 29 27 28 25 21 16 15 14 12 14 14 13 12 15 5 7 9 19 23 24 22 21 18 20 18 18 15 12 11 11 17 20 20 16 18 18 18 17 16 16 16
32 33 35 33 25 22 19 12 15 17 9 11 11 11 7 9 14 10 15 6 15 15 22 23 18 19 19 19 16 15 15 16 16 19 20 16 17 21 17 15 14 17 18
38 36 39 33 24 19 14 10 9 12 8 3 8 6 7 5 4 9 10 12 11 6 3 20 23 17 20 17 16 17 11 10 15 18 20 21 21 20 18 18 17 19 20
39 40 42 28 19 14 8 8 9 9 7 6 4 6 9 7 7 10 9 13 13 13 6 4 17 18 18 18 20 16 16 15 12 17 20 20 21 22 20 16 12 11 13
38 41 41 27 17 11 7 8 9 10 9 4 5 4 5 7 10 9 8 9 10 11 9 6 6 16 19 15 16 15 13 14 16 16 21 23 20 21 20 19 20 19 16
37 39 35 31 23 17 14 11 13 13 10 10 6 4 5 3 6 9 13 11 12 5 9 12 8 7 11 15 13 14 15 15 14 17 18 21 22 21 21 20 19 19 19
34 35 35 29 22 21 16 16 13 12 11 10 7 8 9 7 6 5 9 13 10 12 9 11 11 11 10 11 16 13 17 18 18 18 19 19 19 18 17 17 18 17 18
28 29 32 28 30 20 13 13 11 10 9 10 9 8 9 8 7 6 6 9 12 13 15 15 10 9 15 12 14 10 18 15 17 22 21 21 20 19 19 18 18 18 18
27 26 28 28 30 29 22 17 17 14 11 11 10 8 6 8 10 9 6 7 10 12 16 21 18 17 12 13 14 20 17 18 17 21 21 18 19 21 20 19 21 22 22
26 26 29 26 27 28 28 24 21 19 16 16 17 12 11 8 7 11 9 9 9 8 10 14 17 16 17 16 15 15 21 24 15 20 22 21 20 21 22 21 20 20 21
24 27 24 27 26 25 24 25 23 25 21 15 15 19 12 9 6 10 10 13 6 9 10 13 16 17 15 13 18 18 17 15 20 20 18 20 24 23 21 22 22 22 23
21 24 21 24 28 26 24 20 21 20 26 20 19 19 21 10 10 11 8 8 11 13 13 13 12 17 18 15 16 18 20 22 27 25 24 22 19 22 24 23 24 25 26
24 27 23 20 25 29 25 20 17 19 19 26 24 19 21 20 6 2 7 2 5 9 13 15 11 14 16 16 16 17 19 20 26 26 25 25 28 28 25 25 24 26 27
22 26 29 25 26 29 26 22 17 19 18 19 18 22 22 24 24 4 7 8 10 3 5 5 10 15 17 17 15 18 19 20 19 20 24 29 29 34 32 31 29 28 30
26 22 26 29 26 25 27 26 18 16 19 22 20 17 21 21 20 21 14 8 7 7 8 10 13 12 10 14 18 17 17 20 23 26 28 32 31 34 32 32 31 31 34
22 26 24 26 29 23 24 25 27 18 17 18 20 19 18 18 18 20 17 16 12 9 7 9 10 13 16 17 7 15 20 21 23 25 25 27 29 29 29 33 35 33 33
21 19 22 21 25 29 23 24 24 27 22 19 19 18 17 18 16 16 18 17 17 14 12 12 10 10 9 8 9 13 17 16 19 21 25 24 27 27 27 28 26 26 30
Wind_Direction
322 322 324 321 320 317 314 313 284 271 266 269 272 263 260 256 250 241 233 253 254 253 252 238 234 218 231 238 240 242 242 240 238 238 229 230 230 230 228 226 229 226 232
321 318 316 318 319 313 311 307 302 280 264 261 262 262 262 261 253 253 244 242 255 247 253 238 221 221 234 248 244 242 242 239 238 238 235 232 232 231 230 229 229 232 228
321 317 318 321 318 314 309 303 299 294 273 260 260 262 264 252 250 248 244 239 259 248 251 245 221 220 227 242 247 242 240 239 239 237 237 236 236 234 231 230 228 228 235
330 322 319 319 320 315 307 303 294 291 289 267 258 253 257 264 257 250 242 238 246 248 241 244 223 219 220 225 241 244 248 240 236 240 240 239 239 236 243 239 232 231 229
328 327 320 314 316 316 311 304 288 286 288 286 263 259 251 259 254 251 244 241 237 245 235 231 227 227 220 220 232 236 240 248 254 242 238 239 239 236 239 244 237 234 232
331 332 325 327 318 316 315 310 294 286 282 283 281 259 249 245 245 248 239 234 234 232 226 214 217 225 234 235 238 239 236 240 240 258 255 240 249 240 230 246 240 232 233
338 330 329 330 321 315 312 313 311 285 281 277 283 289 256 254 240 239 243 235 226 223 229 225 220 218 225 224 233 240 240 239 234 239 250 256 242 263 257 239 242 232 239
347 342 334 331 330 323 312 309 308 297 280 270 254 283 298 278 240 231 231 239 229 224 228 230 232 234 228 229 241 248 243 230 232 236 239 239 231 233 251 267 262 249 240
354 351 344 336 332 328 312 309 307 297 279 274 248 235 293 267 323 240 228 227 232 228 224 226 229 228 230 229 236 242 254 245 232 222 231 238 239 236 233 237 249 259 249
352 351 348 338 334 327 325 315 322 309 290 278 254 238 226 279 316 329 206 231 229 227 232 229 228 227 228 229 234 235 249 255 234 224 217 222 239 232 237 239 239 231 229
356 352 345 337 333 326 319 314 329 328 317 264 246 249 250 257 267 271 297 347 232 235 235 234 233 228 230 232 235 238 246 254 250 230 219 212 229 232 223 217 216 206 206
355 351 344 342 330 325 324 331 337 341 345 283 251 241 248 249 283 249 282 295 290 263 296 237 231 231 233 231 232 235 239 246 248 238 223 220 215 224 219 224 224 226 218
354 346 349 349 335 330 338 345 355 3 355 349 303 256 254 251 262 265 276 279 293 268 280 284 233 234 231 236 237 239 238 249 254 237 231 221 209 210 203 197 196 213 232
356 352 6 16 4 11 26 21 16 6 359 336 327 285 307 294 268 258 263 285 316 270 266 290 206 230 232 236 238 235 242 255 245 230 232 225 221 231 226 227 225 227 213
1 2 21 31 30 45 47 38 28 20 5 13 4 350 327 324 297 284 258 259 253 311 309 246 279 227 213 226 242 243 233 245 247 229 230 233 234 231 234 239 244 249 253
6 7 18 33 37 33 33 18 28 22 16 12 5 344 348 311 312 298 256 260 246 261 290 276 276 265 224 208 220 227 244 245 251 236 234 233 232 235 238 240 244 250 257
5 8 15 28 34 25 23 20 20 26 23 12 13 350 333 332 327 311 302 272 255 250 266 263 268 271 254 277 233 229 223 235 249 237 229 232 236 241 246 249 250 252 258
6 11 14 24 31 24 29 16 11 5 354 341 331 327 310 335 331 325 293 277 269 262 268 272 273 241 264 278 271 263 250 232 245 238 229 235 247 245 247 253 261 266 264
9 17 24 23 25 23 18 29 32 27 22 19 7 325 292 284 308 310 305 309 269 263 267 277 279 276 258 259 275 272 249 234 231 245 244 241 243 240 245 252 259 265 266
17 11 18 27 32 24 14 13 20 26 31 29 21 11 350 277 287 305 293 283 280 270 279 272 270 276 280 265 256 266 271 229 228 242 235 247 246 250 250 253 263 276 277
20 12 19 28 27 30 17 9 17 22 21 29 32 25 15 349 265 309 301 282 280 274 267 275 277 275 267 272 269 260 254 248 249 245 238 241 246 248 255 255 263 271 278
3 15 22 28 28 29 18 18 12 15 18 28 23 28 24 17 344 312 24 60 18 310 252 268 273 283 281 280 266 254 258 262 252 240 242 240 247 255 257 259 266 273 276
10 3 12 23 29 29 20 18 14 20 12 10 15 21 22 22 20 342 271 298 320 337 22 261 286 290 285 277 274 273 262 258 254 254 252 254 249 253 252 254 257 264 271
9 9 5 13 20 23 17 19 19 23 21 5 9 19 14 16 22 17 12 332 299 287 283 284 284 292 301 281 264 267 267 265 262 261 259 261 255 255 256 256 255 259 263
7 10 8 6 13 21 20 14 13 23 28 12 7 11 16 18 14 3 7 18 16 357 336 317 300 293 282 273 276 247 254 262 263 264 263 267 270 273 273 269 262 261 262
12 8 6 8 7 12 16 11 5 8 14 12 9 6 21 10 8 10 1 5 4 10 8 4 4 352 341 317 299 273 260 260 259 268 273 266 272 268 274 273 270 266 264